Вернуться в каталог

STARLINK-31646

АктивенСвязьVLEO
NORAD 59265·PAYLOAD·🇺🇸 United States

Запущен Mar 19, 2024 с Vandenberg Space Force Base

Loading…

Ближайшие Пролёты (ближайшие 24 часа)

TLE

СвежийSource: CelesTrak SupGP

Эпоха: Sep 15, 2026, 03:15 UTC

1 59265C 24050M   26258.13590278  .00046967  00000+0  13876-2 0  2582
2 59265  53.1593  18.5633 0001120  93.4506  80.2198 15.34367361    10

Отслеживайте STARLINK-31646 в реальном времени с AllMySat

Download on the App Store